Location: Shenandoah County Park
(38.9356°N, 78.4524°W)
Time: 12:51:56
(UTC-05:00)

Transit 2A - Pass Details

Date: 23 October 2025
Orbit: 591 x 954 km, 66.7° (Epoch: 07 November)

Event Time Altitude Azimuth Distance (km) Brightness Sun altitude
Rises 19:12:00 0° 246° (WSW) 3,009 10.7 -10.0°
Reaches altitude 10° 19:14:39 10° 261° (W) 2,157 10.0 -10.6°
Maximum altitude 19:18:32 23° 313° (NW) 1,555 8.1 -11.3°
Drops below altitude 10° 19:22:44 10° 5° (N) 2,357 8.4 -12.1°
Sets 19:25:48 0° 19° (NNE) 3,363 9.1 -12.7°
